Find Starlink 11553

NORAD ID: 63006 Int'l Des: 2025-032 Owner: SPXS Country: US Constellation: starlink operational
別名: STARLINK-11553 [DTC] celestrak
LEOCIRCULAR

現在のビュー

3D地球を読み込み中...

About Starlink 11553

Starlink 11553 (NORAD 63006) is a starlink constellation satellite (v2 mini d2c) launched Feb 15, 2025 by SPXS of US. It operates in LEO, CIRCULAR orbit with a mass of 960.00 kg.

次回通過

Passes for default location (London). Set your location on the main map for personalized predictions.

高度履歴

Loading altitude history...

軌道要素

1 63006U 25032B 26235.81263806 .00138058 00000-0 10587-2 0 9997
2 63006 43.0004 268.3630 0001480 270.5775 89.4923 15.70905037 88493
Epoch: Aug 23, 2026 • Age: 16 hours

現在のステータス

高度 359.3 km
遠地点 / 近地点 N/A
速度 7.70 km/s
衛星直下点 40.73°N, 167.65°W
打ち上げ日 Feb 15, 2025
運用期間 1.5 years
タイプ internet

技術仕様

分類 Payload
質量 960.00 kg
乾燥質量 910.00 kg
総質量 960.00 kg
長さ 0.30 m
直径 4.10 m
スパン 29.00 m
形状 Box + pan
製造者 SPXS
バスタイプ Starlink V2MD
フェーズステータス In Orbit
所有者/国 SPXS/US

Most Searched